Location: Dziadowski
(50.3833°N, 20.0333°E)
Time: 12:00:02
(UTC+00:00)

Cosmos 2278 Rocket - Pass Details

Date: 18 January 2026
Orbit: 839 x 846 km, 71.0° (Epoch: 16 February)

Event Time Altitude Azimuth Distance (km) Brightness Sun altitude
Exits shadow 04:14:18 - 210° (SSW) 2,514 4.4 -21.3°
Reaches altitude 10° 04:14:28 10° 210° (SSW) 2,451 4.4 -21.3°
Maximum altitude 04:20:06 84° 298° (WNW) 852 2.1 -20.4°
Drops below altitude 10° 04:25:48 10° 29° (NNE) 2,472 4.9 -19.5°
Sets 04:28:15 0° 30° (NNE) 3,411 5.6 -19.1°
